Regional Weather Roundup
Issued by NWS

Home | Current Version | Previous Version | Graphics & Text | Print | Product List | Glossary Off
Versions: 1 2 3 4 5 6 7 8 9 10 11 12 13 14 15 16 17 18 19 20 21 22 23 24 25 26 27 28 29 30 31 32 33 34 35 36 37 38 39 40 41 42 43 44 45 46 47 48 49 50

000
ASUS43 KDTX 241710
RWRMI
MICHIGAN HOURLY REGIONAL WEATHER ROUNDUP
NATIONAL WEATHER SERVICE DETROIT/PONTIAC MI
100 PM EDT SAT SEP 24 2016

NOTE: "FAIR" INDICATES FEW OR NO CLOUDS BELOW 12,000 FEET WITH NO
SIGNIFICANT WEATHER AND/OR OBSTRUCTION TO VISIBILITY.

MIZ047>049-052>055-059>063-066>070-074>076-081>083-241800-
SOUTHEAST LOWER MICHIGAN

CITY           SKY/WX    TMP DP  RH WIND       PRES   REMARKS
ADRIAN         CLOUDY    69  54  58 VRB7      30.25F
ALMA           SUNNY     65  49  55 NE8G18    30.30F
ANN ARBOR      MOSUNNY   66  52  60 NE8       30.26S
BAD AXE        MOSUNNY   62  46  55 NE6       30.31S
CARO           MOSUNNY   65  48  55 E6        30.29S
DETROIT CITY   CLOUDY    66  51  58 NE13      30.27F
DETROIT        MOSUNNY   68  53  58 NE10      30.27S
FLINT          CLOUDY    64  51  62 E9        30.28F
GROSSE ILE     SUNNY     68  51  53 NE9       30.25F
HILLSDALE      CLOUDY    68  52  56 E7        30.25S
HOWELL         SUNNY     65  52  64 E8        30.26F

CITY           SKY/WX    TMP DP  RH WIND       PRES   REMARKS
JACKSON        MOSUNNY   66  54  65 NE10      30.25F
LAMBERTVILLE   CLOUDY    69  55  62 E5        30.25S
LANSING        CLOUDY    65  51  60 NE12      30.27F
LAPEER         FAIR      64  48  57 NE8       30.28F
MASON          SUNNY     66  52  60 E6        30.26F
MONROE         PTSUNNY   69  52  55 E8        30.24F
MT. CLEMENS    MOSUNNY   64  52  65 NE7       30.25F
PONTIAC        CLOUDY    63  49  60 NE8       30.27S
PORT HOPE        N/A     61  47  59 E8        30.30S
PORT HURON     SUNNY     63  50  63 NE5       30.28F
TRI CITIES     SUNNY     65  46  50 NE8       30.30F
MIDLAND        FAIR      65  46  50 E8G17     30.30S
TROY           SUNNY     65  46  50 NE6       30.29F
SAGINAW HB     SUNNY     66  45  45 NE10      30.29S
$$
MIZ043>046-050>051-056>058-064>065-071>073-077>080-241800-
SOUTHWEST LOWER MICHIGAN

CITY           SKY/WX    TMP DP  RH WIND       PRES   REMARKS
BATTLE CREEK   SUNNY     69  56  62 E7        30.25S
BENTON HARBOR  CLOUDY    69  59  70 E10       30.21F
BIG RAPIDS     SUNNY     64  50  60 SE10      30.28F
COLDWATER      CLOUDY    67  56  67 E6        30.24S
FREMONT        FAIR      65  46  49 E9G18     30.25F
HOLLAND        MOSUNNY   68  55  63 E10       30.24F
GRAND RAPIDS   CLOUDY    65  51  60 NE14      30.26F
IONIA          FAIR      65  51  62 NE12      30.27S
KALAMAZOO      CLOUDY    66  53  63 VRB5      30.25S
LUDINGTON      SUNNY     66  53  62 E13       30.26F
MARSHALL       PTSUNNY   67  55  65 E3        30.25S
MOUNT PLEASANT PTSUNNY   64  50  61 E6G16     30.29F
MUSKEGON       CLOUDY    66  50  56 E13G20    30.26S
SOUTH HAVEN    SUNNY     70  61  71 E9        30.22F
$$
MIZ016>042-241800-
NORTHERN LOWER MICHIGAN

CITY           SKY/WX    TMP DP  RH WIND       PRES   REMARKS
ALPENA         SUNNY     63  39  41 SE5       30.32F
BEAVER ISLAND  CLOUDY    62  48  60 SE7       30.31S
BELLAIRE       MOSUNNY   64  44  47 SE10      30.30F
CADILLAC       SUNNY     63  47  54 SE9       30.28F
CHARLEVOIX     PTSUNNY   62  42  48 E10       30.33F
FRANKFORT      CLOUDY    64  48  57 E8        30.27F
GAYLORD        CLOUDY    60  39  45 SE10      30.31F
GRAYLING       MOSUNNY   64  44  48 E8        30.31F
HARBOR SPRINGS MOSUNNY   62  44  51 E5        30.31S
HOUGHTON LAKE  SUNNY     63  44  50 E8        30.31F
MANISTEE       CLOUDY    65  49  56 SE8       30.26F
OSCODA         MOSUNNY   63  44  49 E6        30.31F
PELLSTON       MOSUNNY   62  43  49 SE8G17    30.31F
ROGERS CITY    SUNNY     63  41  44 E9        30.33F
TRAVERSE CITY  CLOUDY    66  45  46 E12G18    30.27F
$$
MIZ007>008-015-241800-
EASTERN UPPER MICHIGAN

CITY           SKY/WX    TMP DP  RH WIND       PRES   REMARKS
KINROSS        SUNNY     62  43  49 SE7       30.31F
MACKINAC ISLAN PTSUNNY   61  46  57 S8        30.31S
NEWBERRY       MOSUNNY   61  47  60 S3        30.31S
S. S. MARIE    SUNNY     63  41  44 VRB3      30.30F
MUNISING         N/A     62  48  60 S9        30.29F
$$
MIZ004>006-011>014-085-241800-
CENTRAL UPPER MICHIGAN

CITY           SKY/WX    TMP DP  RH WIND       PRES   REMARKS
MANISTIQUE     CLOUDY    64  49  57 SE10      30.31S
ESCANABA       CLOUDY    64  50  60 SE14      30.29S
SAWYER-GWINN   MOSUNNY   61  48  63 S13       30.29F
$$
MIZ001>003-009>011-084-241800-
WESTERN UPPER MICHIGAN

CITY           SKY/WX    TMP DP  RH WIND       PRES   REMARKS
IRON MOUNTAIN  MOSUNNY   65  48  54 SE8       30.26F
HOUGHTON       CLOUDY    62  50  64 SE8       30.24F
COPPER HARBOR    N/A     63  51  65 S12G20    30.25F
$$

ABBREVIATIONS USED IN REMARKS
   TC - TEMPERATURE IN CELSIUS
  WCI - WIND CHILL INDEX
   HX - HEAT INDEX
  VSB - VISIBILITY




USA.gov is the U.S. government's official web portal to all federal, state and local government web resources and services.